Regional Weather Roundup
Issued by NWS

Home | Current Version | Previous Version | Text Only | Print | Product List | Glossary Off
Versions: 1 2 3 4 5 6 7 8 9 10 11 12 13 14 15 16 17 18 19 20 21 22 23 24 25 26 27 28 29 30 31 32 33 34 35 36 37 38 39 40 41 42 43 44 45 46 47 48 49 50

000
ASUS43 KMKX 110759
RWRWI

WISCONSIN REGIONAL WEATHER ROUNDUP
NATIONAL WEATHER SERVICE MILWAUKEE/SULLIVAN WI
200 AM CST THU FEB 11 2016

NOTE: "FAIR" INDICATES FEW OR NO CLOUDS BELOW 12,000 FEET WITH NO
SIGNIFICANT WEATHER AND/OR OBSTRUCTIONS TO VISIBILITY.

WIZ001-002-006>008-014>016-023>028-110900-
NORTHWEST WISCONSIN

CITY           SKY/WX    TMP DP  RH WIND       PRES   REMARKS
SUPERIOR ARPT  CLOUDY    -5 -11  76 CALM      30.30S
ASHLAND        PTCLDY    -4  -8  83 SW7       30.25R WCI -18
HAYWARD        CLOUDY   -15 -20  78 CALM      30.21F
SIREN          PTCLDY   -10 -16  75 CALM      30.27S
CUMBERLAND     PTCLDY    -4 -13  65 NW5       30.22S WCI -15
RICE LAKE      PTCLDY    -6 -10  81 CALM      30.25S
CHETEK         PTCLDY    -6  -9  87 CALM      30.24S
LADYSMITH      CLOUDY   -12 -16  81 CALM      30.22S
EAU CLAIRE     CLOUDY    -2 -10  69 CALM      30.25S
MENOMONIE      CLOUDY     2  -7  67 W6        30.26S WCI  -9
NEW RICHMOND   CLOUDY    -3  -8  79 CALM      30.26S
OSCEOLA        CLOUDY    -3  -7  82 CALM      30.30F
$$

WIZ003>005-009-010-017-018-110900-
NORTH CENTRAL WISCONSIN

CITY           SKY/WX    TMP DP  RH WIND       PRES   REMARKS
MANITOWISH WTR FLURRIES   3  -1  84 NW6       30.11R WCI  -8
ARBOR VITAE    CLOUDY     3  -1  81 CALM      30.10S
WOODRUFF       CLOUDY     3  -1  81 CALM      30.10S
RHINELANDER    PTCLDY    -1  -5  82 W8        30.10R WCI -15
EAGLE RIVER    FLURRIES   2  -3  79 W6        30.09R WCI  -9
LAND O LAKES   CLOUDY     6   1  82 NW6       30.08S WCI  -5
PHILLIPS       CLOUDY    -9 -12  85 CALM      30.16R
TOMAHAWK       PTCLDY    -1  -5  82 W6        30.14R WCI -13
MEDFORD        PTCLDY    -9 -12  87 CALM      30.15S
MERRILL        CLEAR      0  -5  80 NW3       30.16R
$$

WIZ029-030-035-036-043>047-110900-
CENTRAL WISCONSIN

CITY           SKY/WX    TMP DP  RH WIND       PRES   REMARKS
WAUSAU         PTCLDY     0  -6  76 NW5       30.16R WCI -10
MOSINEE        CLEAR      0  -4  85 CALM      30.17S
MARSHFIELD     CLOUDY    -2  -9  72 NW6       30.17S WCI -14
STEVENS POINT  PTCLDY    -1  -6  77 CALM      30.18S
WAUPACA        PTCLDY     2  -6  69 W8        30.20S WCI -11
WAUTOMA        NOT AVBL
WISC RAPIDS    CLEAR     -5 -10  79 W3        30.22R
CAMP DOUGLAS   NOT AVBL
$$

WIZ011>013-019>022-031-037>040-048>050-110900-
NORTHEAST WISCONSIN

CITY           SKY/WX    TMP DP  RH WIND       PRES   REMARKS
ANTIGO         CLEAR      0  -5  79 W9        30.11R WCI -16
SHAWANO        CLEAR      4  -4  68 W5        30.18R WCI  -5
OCONTO         PTCLDY    -1  -7  78 W3        30.17S
STURGEON BAY   CLEAR      3  -8  60 W7        30.16S WCI  -9
GREEN BAY      PTCLDY    -2  -8  76 W8        30.18S WCI -17
MANITOWOC      NOT AVBL
APPLETON       CLEAR      1  -8  66 W9        30.15F WCI -14
CLINTONVILLE   PTCLDY     1  -6  71 W9        30.18R WCI -14
OSHKOSH        PTCLDY     1  -8  66 W7        30.19S WCI -12
$$

WIZ032>034-041-042-053>061-110900-
SOUTHWEST WISCONSIN

CITY           SKY/WX    TMP DP  RH WIND       PRES   REMARKS
LA CROSSE      CLEAR      0  -6  76 CALM      30.28R
SPARTA         CLEAR     -7 -10  84 CALM      30.26S
VIROQUA        CLEAR      0  -5  77 NW3       30.20S
BOSCOBEL       CLEAR      2  -4  76 CALM      30.27R
PRAIRIE DU CHI CLEAR      9  -2  61 NW5       30.26S WCI   0
PLATTEVILLE    CLOUDY     8  -1  68 N8        30.20S WCI  -5
$$

WIZ056-057-062-063-064-067-068-110900-
SOUTH CENTRAL WISCONSIN

CITY           SKY/WX    TMP DP  RH WIND       PRES   REMARKS
REEDSBURG      CLEAR      2  -5  72 NW3       30.22R
BARABOO/DELLS  CLEAR      2  -5  70 NW5       30.21R WCI  -7
LONE ROCK      NOT AVBL
MINERAL POINT  CLEAR      7  -2  66 NW6       30.19R WCI  -3
MADISON        CLEAR      5  -4  66 NW6       30.21R WCI  -6
MIDDLETON      CLEAR      6  -2  70 NW5       30.21R WCI  -3
WATERTOWN      CLEAR      5  -3  71 N5        30.19R WCI  -4
MONROE         PTCLDY     9   0  66 NW6       30.17S WCI  -1
JANESVILLE     CLEAR     10   1  67 N5        30.20R WCI   2
$$

WIZ051-052-058>065-066-070>072-110900-
SOUTHEAST WISCONSIN

CITY           SKY/WX    TMP DP  RH WIND       PRES   REMARKS
MILWAUKEE      CLEAR      7  -4  60 N9        30.19R WCI  -7
WAUKESHA       CLEAR      1  -4  78 NW3       30.18S
MILWAUKEE/TIMM PTCLDY     5  -6  61 N7        30.20R WCI  -7
RACINE         CLEAR      7  -4  60 NW9       30.19S WCI  -7
BURLINGTON     CLEAR      5  -3  69 NW6       30.18R WCI  -6
KENOSHA        CLEAR      7  -2  66 NW9       30.18R WCI  -7
FOND DU LAC    PTCLDY     3  -6  66 NW9       30.19S WCI -12
SHEBOYGAN      CLEAR      5  -6  60 NW9       30.16F WCI  -9
WEST BEND      CLEAR      3  -6  66 CALM      30.17S
JUNEAU         CLEAR      2  -5  70 NW5       30.20R WCI  -7
$$

LSZ147-162-110900-
LAKE SUPERIOR

STATION/POSITION TIME  TEMP    WIND        PRES    WAVE
                       AIR SEA DIR/SP/G            HT/PER
                 (UTC) (F)     (DEG/KT/KT) (MB)    (FT/S)
DEVILS ISLAND    0700    8     350/ 15/ 18 1025.6R
PORT WING        0700    8     330/  7/ 13 1024.7R
SAXON HARBOR     0700    9                 1023.0R
$$

LMZ867-665-643>646-110900-
LAKE MICHIGAN

STATION/POSITION TIME  TEMP    WIND        PRES    WAVE
                       AIR SEA DIR/SP/G            HT/PER
                 (UTC) (F)     (DEG/KT/KT) (MB)    (FT/S)
CHAMBERS ISLAND  0700    9     290/  5/  9 1020.3S
KEWAUNEE LAKESHO 0700    4     310/  8/ 11 1020.2S
SHEBOYGAN LAKESH 0700    7     310/ 10/ 13 1023.6R
PORT WASHINGTON  0740    6     300/  4/  7 1023.4R
MILWAUKEE LAKESH 0710    9     340/ 10/ 13   N/A
KENOSHA   LAKESH 0700   10     320/  9/ 14 1021.7R
$$

TC  - TEMPERATURE IN CELSIUS
VSB - VISIBILITY IN STATUTE MILES
WCI - WIND CHILL INDEX
HX  - HEAT INDEX




USA.gov is the U.S. government's official web portal to all federal, state and local government web resources and services.